Reno - Stead, NV

6:33 PM PST on December 08, 2019 (GMT -0800)
Reno - Stead

Weather History for KRTS - October, 2019

Change the Weather History Date:

Saturday, October 19, 2019

  Actual Average (KRNO) Record (KRNO)
Temperature  
Mean Temperature 48 °F -  
Max Temperature 59 °F 69 °F 85 °F (1921)
Min Temperature 37 °F 31 °F 19 °F (1966)
Degree Days  
Heating Degree Days 17    
Moisture  
Dew Point 28 °F    
Average Humidity 47    
Maximum Humidity 75    
Minimum Humidity 33    
Precipitation  
Precipitation 0.00 in - - ()
Sea Level Pressure  
Sea Level Pressure 30.06 in    
Wind  
Wind Speed 12 mph (WNW)    
Max Wind Speed 30 mph    
Max Gust Speed 41 mph    
Visibility 10 miles    
Events      
Averages and records for this station are not official NWS values.
T = Trace of Precipitation, MM = Missing Value Source: NWS Daily Summary

Daily Weather History Graph

Daily Weather History Graph

Search for Another Location

Airport or City:

Astronomy

Oct. 19, 2019 Rise Set
Actual Time 7:13 AM PDT 6:14 PM PDT
Civil Twilight 6:46 AM PDT 6:41 PM PDT
Nautical Twilight 6:15 AM PDT 7:13 PM PDT
Astronomical Twilight 5:43 AM PDT 7:44 PM PDT
Moon 10:29 PM PDT (10/19) 12:50 PM PDT (10/19)
Length of Visible Light 11h 55m
Length of Day
11h 00m
Waning Gibbous, 68% of the Moon is Illuminated
Oct 19
Waning Gibbous
Oct 21
Last Quarter
Oct 27
New
Nov 4
First Quarter
Nov 12
Full

Hourly Weather History & Observations

Time (PDT) Temp. Windchill Dew Point Humidity Pressure Visibility Wind Dir Wind Speed Gust Speed Precip Events Conditions
12:15 AM 41.0 °F 36.4 °F 26.6 °F 57% 30.09 in 10.0 mi WNW 6.9 mph - N/A   Partly Cloudy
12:35 AM 42.8 °F 38.0 °F 26.6 °F 53% 30.09 in 10.0 mi WSW 8.1 mph - N/A   Mostly Cloudy
12:55 AM 41.0 °F 36.4 °F 26.6 °F 57% 30.08 in 10.0 mi WNW 6.9 mph - N/A   Mostly Cloudy
1:15 AM 42.8 °F - 26.6 °F 53% 30.07 in 10.0 mi Calm Calm - N/A   Partly Cloudy
1:35 AM 42.8 °F - 26.6 °F 53% 30.07 in 10.0 mi Calm Calm 11.5 mph N/A   Clear
2:35 AM 39.2 °F 34.2 °F 23.0 °F 52% 30.07 in 10.0 mi North 6.9 mph - N/A   Clear
2:55 AM 41.0 °F 34.7 °F 21.2 °F 45% 30.06 in 10.0 mi North 10.4 mph - N/A   Clear
3:15 AM 41.0 °F 34.3 °F 19.4 °F 42% 30.06 in 10.0 mi North 11.5 mph - N/A   Clear
3:35 AM 42.8 °F 36.2 °F 19.4 °F 39% 30.04 in 10.0 mi North 12.7 mph - N/A   Scattered Clouds
3:55 AM 42.8 °F 37.5 °F 19.4 °F 39% 30.04 in 10.0 mi North 9.2 mph - N/A   Partly Cloudy
4:15 AM 44.6 °F 40.2 °F 17.6 °F 34% 30.03 in 10.0 mi North 8.1 mph - N/A   Clear
4:35 AM 42.8 °F 38.0 °F 17.6 °F 36% 30.03 in 10.0 mi North 8.1 mph - N/A   Partly Cloudy
4:55 AM 41.0 °F 39.0 °F 17.6 °F 39% 30.03 in 10.0 mi NW 3.5 mph - N/A   Mostly Cloudy
5:15 AM 41.0 °F 35.2 °F 17.6 °F 39% 30.03 in 10.0 mi North 9.2 mph - N/A   Scattered Clouds
5:35 AM 44.6 °F - 19.4 °F 37% 30.03 in 10.0 mi Calm Calm - N/A   Partly Cloudy
5:55 AM 42.8 °F 40.1 °F 19.4 °F 39% 30.03 in 10.0 mi Variable 4.6 mph - N/A   Clear
6:15 AM 44.6 °F - 21.2 °F 39% 30.02 in 10.0 mi Calm Calm - N/A   Clear
6:35 AM 44.6 °F - 23.0 °F 43% 30.02 in 10.0 mi Calm Calm - N/A   Clear
6:55 AM 48.2 °F - 24.8 °F 40% 30.02 in 10.0 mi West 12.7 mph 20.7 mph N/A   Clear
7:15 AM 48.2 °F - 24.8 °F 40% 30.02 in 10.0 mi WSW 21.9 mph - N/A   Clear
7:35 AM 48.2 °F - 24.8 °F 40% 30.01 in 10.0 mi WSW 21.9 mph 29.9 mph N/A   Clear
7:55 AM 48.2 °F - 28.4 °F 46% 30.01 in 10.0 mi WSW 23.0 mph 28.8 mph N/A   Clear
8:15 AM 50.0 °F - 28.4 °F 43% 30.01 in 10.0 mi WSW 26.5 mph 32.2 mph N/A   Clear
8:35 AM 50.0 °F - 26.6 °F 40% 30.01 in 10.0 mi WSW 19.6 mph 29.9 mph N/A   Clear
8:55 AM 50.0 °F - 26.6 °F 40% 30.02 in 10.0 mi WSW 20.7 mph 27.6 mph N/A   Clear
9:15 AM 50.0 °F - 26.6 °F 40% 30.04 in 10.0 mi WSW 15.0 mph 23.0 mph N/A   Mostly Cloudy
9:35 AM 53.6 °F - 30.2 °F 41% 30.03 in 10.0 mi WSW 23.0 mph - N/A   Overcast
9:55 AM 53.6 °F - 28.4 °F 38% 30.03 in 10.0 mi WSW 19.6 mph 29.9 mph N/A   Scattered Clouds
10:15 AM 55.4 °F - 30.2 °F 38% 30.03 in 10.0 mi WSW 19.6 mph 27.6 mph N/A   Scattered Clouds
10:35 AM 55.4 °F - 32.0 °F 41% 30.02 in 10.0 mi WSW 19.6 mph 26.5 mph N/A   Mostly Cloudy
10:55 AM 55.4 °F - 32.0 °F 41% 30.03 in 10.0 mi WSW 20.7 mph - N/A   Mostly Cloudy
11:15 AM 55.4 °F - 32.0 °F 41% 30.02 in 10.0 mi WSW 20.7 mph 29.9 mph N/A   Partly Cloudy
11:35 AM 57.2 °F - 35.6 °F 44% 30.02 in 10.0 mi West 20.7 mph 32.2 mph N/A   Partly Cloudy
11:55 AM 57.2 °F - 35.6 °F 44% 30.03 in 10.0 mi West 19.6 mph 29.9 mph N/A   Partly Cloudy
12:15 PM 59.0 °F - 35.6 °F 42% 30.02 in 10.0 mi West 17.3 mph 35.7 mph N/A   Scattered Clouds
12:35 PM 57.2 °F - 35.6 °F 44% 30.02 in 10.0 mi NW 17.3 mph 26.5 mph N/A   Scattered Clouds
12:55 PM 57.2 °F - 35.6 °F 44% 30.02 in 10.0 mi WNW 20.7 mph 27.6 mph N/A   Mostly Cloudy
1:15 PM 57.2 °F - 37.4 °F 48% 30.02 in 10.0 mi WNW 26.5 mph 33.4 mph N/A   Mostly Cloudy
1:35 PM 55.4 °F - 37.4 °F 51% 30.01 in 10.0 mi WNW 23.0 mph 32.2 mph N/A   Light Drizzle
1:55 PM 55.4 °F - 41.0 °F 58% 30.02 in 8.0 mi WNW 21.9 mph 33.4 mph N/A   Light Drizzle
2:15 PM 53.6 °F - 39.2 °F 58% 30.02 in 9.0 mi WNW 26.5 mph - N/A   Light Drizzle
2:35 PM 55.4 °F - 35.6 °F 47% 30.02 in 10.0 mi West 29.9 mph 36.8 mph N/A   Partly Cloudy
2:55 PM 55.4 °F - 35.6 °F 47% 30.02 in 10.0 mi WNW 29.9 mph 35.7 mph N/A   Clear
3:15 PM 55.4 °F - 35.6 °F 47% 30.03 in 10.0 mi WNW 23.0 mph 35.7 mph N/A   Clear
3:35 PM 55.4 °F - 32.0 °F 41% 30.04 in 10.0 mi West 24.2 mph 41.4 mph N/A   Clear
3:55 PM 53.6 °F - 30.2 °F 41% 30.04 in 10.0 mi West 26.5 mph 35.7 mph N/A   Clear
4:15 PM 53.6 °F - 28.4 °F 38% 30.04 in 10.0 mi WNW 25.3 mph 32.2 mph N/A   Clear
4:35 PM 51.8 °F - 26.6 °F 38% 30.05 in 10.0 mi West 21.9 mph 28.8 mph N/A   Clear
4:55 PM 53.6 °F - 24.8 °F 33% 30.06 in 10.0 mi West 21.9 mph 28.8 mph N/A   Clear
5:15 PM 51.8 °F - 23.0 °F 33% 30.06 in 10.0 mi WNW 19.6 mph 29.9 mph N/A   Clear
5:35 PM 51.8 °F - 24.8 °F 35% 30.05 in 10.0 mi West 23.0 mph - N/A   Clear
5:55 PM 50.0 °F - 24.8 °F 37% 30.05 in 10.0 mi West 15.0 mph 26.5 mph N/A   Clear
6:15 PM 50.0 °F - 24.8 °F 37% 30.08 in 10.0 mi NW 6.9 mph - N/A   Clear
6:35 PM 48.2 °F - 24.8 °F 40% 30.07 in 10.0 mi WNW 6.9 mph 13.8 mph N/A   Clear
6:55 PM 46.4 °F 42.4 °F 26.6 °F 46% 30.09 in 10.0 mi WNW 8.1 mph - N/A   Clear
7:15 PM 46.4 °F 40.4 °F 26.6 °F 46% 30.09 in 10.0 mi West 13.8 mph - N/A   Clear
7:35 PM 46.4 °F 40.7 °F 28.4 °F 50% 30.10 in 10.0 mi West 12.7 mph - N/A   Clear
7:55 PM 44.6 °F 38.4 °F 28.4 °F 53% 30.10 in 10.0 mi West 12.7 mph - N/A   Clear
8:15 PM 44.6 °F 37.2 °F 28.4 °F 53% 30.10 in 10.0 mi West 17.3 mph - N/A   Clear
8:35 PM 44.6 °F 37.4 °F 30.2 °F 57% 30.10 in 10.0 mi WNW 16.1 mph 21.9 mph N/A   Clear
8:55 PM 44.6 °F 39.7 °F 30.2 °F 57% 30.12 in 10.0 mi WNW 9.2 mph 18.4 mph N/A   Clear
9:15 PM 42.8 °F - 30.2 °F 61% 30.13 in 10.0 mi Calm Calm - N/A   Clear
9:35 PM 41.0 °F 36.4 °F 28.4 °F 61% 30.12 in 10.0 mi NW 6.9 mph - N/A   Clear
9:55 PM 39.2 °F 35.9 °F 30.2 °F 70% 30.12 in 10.0 mi WNW 4.6 mph - N/A   Clear
10:15 PM 41.0 °F 37.1 °F 30.2 °F 65% 30.13 in 10.0 mi NW 5.8 mph - N/A   Clear
10:35 PM 37.4 °F 31.4 °F 30.2 °F 75% 30.14 in 10.0 mi NW 8.1 mph - N/A   Clear
10:55 PM 37.4 °F 30.8 °F 30.2 °F 75% 30.14 in 10.0 mi WNW 9.2 mph - N/A   Clear
11:15 PM 39.2 °F 33.6 °F 30.2 °F 70% 30.15 in 10.0 mi NNW 8.1 mph - N/A   Clear
11:35 PM 37.4 °F 29.8 °F 30.2 °F 75% 30.14 in 10.0 mi WNW 11.5 mph - N/A   Clear
11:55 PM 37.4 °F 32.8 °F 30.2 °F 75% 30.15 in 10.0 mi North 5.8 mph - N/A   Clear